Date String (YYYY-MM-DD hh:mm:ss) UTC,Instrument flags,Ambient pressure (hPa),Sample flow (lpm),Bypass flow (lpm),Sample temperature (°C),Ambient temperature (°C),ASC tube jacket temperature (°C),LED temperature (°C),Box temperature (°C),Sample RH (%),Span deviation,Mass concentration (μg/m³),Mass concentration (μg/m³),Mass concentration (μg/m³)
DateTimeUTC,F1_M11,P_M11,Q1_M11,Q2_M11,T1_M11,T2_M11,T3_M11,T4_M11,T5_M11,U1_M11,ZSPAN_M11,X0_M11,X2_M11,X1_M11
2022-12-14 20:00:00,,0816.0,5.00,0.00,22.4,21.0,00.0,31.2,24.2,09.5,0000.0,0016.22,0005.24,0004.41
2022-12-14 20:01:00,,0816.0,4.99,0.00,22.4,20.9,00.0,31.2,24.1,09.5,0000.0,0015.30,0005.25,0004.42
2022-12-14 20:02:00,,0816.0,5.04,0.00,22.4,20.8,00.0,31.2,24.1,09.5,0000.0,0014.81,0005.27,0004.41
2022-12-14 20:03:00,,0816.0,4.95,0.00,22.3,20.7,00.0,31.2,24.1,09.5,0000.0,0015.30,0005.32,0004.40
2022-12-14 20:04:00,,0816.0,5.06,0.00,22.3,20.6,00.0,31.2,24.1,09.5,0000.0,0014.67,0005.31,0004.39
2022-12-14 20:05:00,,0816.0,4.96,0.00,22.3,20.6,00.0,31.2,24.0,09.6,0000.0,0014.04,0005.32,0004.41
2022-12-14 20:06:00,,0816.0,5.04,0.00,22.3,20.5,00.0,31.2,24.0,09.6,0000.0,0014.21,0005.28,0004.42
2022-12-14 20:07:00,,0816.0,4.95,0.00,22.2,20.5,00.0,31.2,24.0,09.7,0000.0,0014.48,0005.29,0004.44
2022-12-14 20:08:00,,0816.0,5.05,0.00,22.2,20.4,00.0,31.1,23.9,09.7,0000.0,0014.41,0005.32,0004.44
2022-12-14 20:09:00,,0816.0,4.95,0.00,22.2,20.4,00.0,31.1,23.9,09.7,0000.0,0013.50,0005.32,0004.45
2022-12-14 20:10:00,,0816.0,5.03,0.00,22.2,20.4,00.0,31.1,23.9,09.8,0000.0,0013.00,0005.29,0004.45
2022-12-14 20:11:00,,0815.9,4.99,0.00,22.1,20.3,00.0,31.1,23.9,09.8,0000.0,0012.67,0005.26,0004.45
2022-12-14 20:12:00,,0815.9,4.98,0.00,22.1,20.3,00.0,31.1,23.9,09.7,0000.0,0012.76,0005.20,0004.42
2022-12-14 20:13:00,,0815.9,5.05,0.00,22.1,20.3,00.0,31.1,23.8,09.7,0000.0,0013.06,0005.19,0004.42
2022-12-14 20:14:00,,0816.0,4.96,0.00,22.1,20.2,00.0,31.0,23.8,09.8,0000.0,0012.89,0005.18,0004.43
2022-12-14 20:15:00,,0815.9,5.05,0.00,22.0,20.2,00.0,31.0,23.7,09.8,0000.0,0012.66,0005.19,0004.43
2022-12-14 20:16:00,,0816.0,4.96,0.00,22.0,20.5,00.0,31.0,23.8,09.8,0000.0,0012.67,0005.22,0004.43
2022-12-14 20:17:00,,0816.0,5.01,0.00,22.1,21.6,00.0,31.0,24.0,09.9,0000.0,0012.29,0005.25,0004.45
2022-12-14 20:18:00,,0816.0,5.02,0.00,22.2,22.2,00.0,31.0,24.2,09.9,0000.0,0012.81,0005.26,0004.44
2022-12-14 20:19:00,,0816.1,4.96,0.00,22.2,21.8,00.0,31.0,24.1,09.8,0000.0,0012.43,0005.25,0004.45
2022-12-14 20:20:00,,0816.0,5.00,0.00,22.2,21.4,00.0,31.0,24.1,09.9,0000.0,0012.71,0005.23,0004.46
2022-12-14 20:21:00,,0816.0,5.00,0.00,22.2,21.2,00.0,31.0,24.0,10.0,0000.0,0013.42,0005.24,0004.47
2022-12-14 20:22:00,,0816.0,5.00,0.00,22.2,20.9,00.0,31.0,23.9,09.9,-000.2,0013.50,0005.25,0004.47
2022-12-14 20:23:00,,0816.0,5.00,0.00,22.1,20.7,00.0,31.0,23.9,09.9,-000.2,0013.61,0005.30,0004.50
2022-12-14 20:24:00,,0815.9,5.03,0.00,22.1,20.5,00.0,31.0,23.8,09.9,-000.9,0014.01,0005.33,0004.50
2022-12-14 20:25:00,,0816.0,4.96,0.00,22.1,20.4,00.0,31.0,23.8,09.9,-000.3,0013.82,0005.30,0004.51
2022-12-14 20:26:00,,0815.9,5.05,0.00,22.1,20.4,00.0,31.0,23.7,09.9,-000.2,0014.89,0005.27,0004.50
2022-12-14 20:27:00,,0815.9,4.96,0.00,22.0,20.3,00.0,31.0,23.7,09.9,-000.7,0015.80,0005.29,0004.49
2022-12-14 20:28:00,,0815.8,5.04,0.00,22.0,20.2,00.0,30.9,23.7,10.0,0000.0,0016.01,0005.30,0004.49
2022-12-14 20:29:00,,0815.8,4.95,0.00,22.0,20.2,00.0,30.9,23.7,09.8,0000.0,0015.90,0005.30,0004.47
2022-12-14 20:30:00,,0815.8,5.05,0.00,22.0,20.1,00.0,30.9,23.6,10.0,0000.0,0016.59,0005.31,0004.45
2022-12-14 20:31:00,,0815.8,4.95,0.00,21.9,20.0,00.0,30.9,23.6,10.0,0000.0,0016.44,0005.32,0004.42
2022-12-14 20:32:00,,0815.7,5.05,0.00,21.9,20.0,00.0,30.9,23.6,10.0,0000.0,0016.00,0005.32,0004.41
2022-12-14 20:33:00,,0815.8,4.95,0.00,21.9,19.8,00.0,30.8,23.5,09.9,0000.0,0016.61,0005.29,0004.39
2022-12-14 20:34:00,,0815.8,5.05,0.00,21.8,19.8,00.0,30.8,23.4,10.0,0000.0,0016.46,0005.29,0004.37
2022-12-14 20:35:00,,0815.8,4.95,0.00,21.8,19.8,00.0,30.8,23.5,10.1,0000.0,0015.81,0005.29,0004.37
2022-12-14 20:36:00,,0815.8,5.05,0.00,21.8,19.8,00.0,30.8,23.4,10.3,0000.0,0016.19,0005.30,0004.36
2022-12-14 20:37:00,,0815.8,4.96,0.00,21.8,20.5,00.0,30.7,23.6,10.4,0000.0,0015.32,0005.37,0004.36
2022-12-14 20:38:00,,0815.8,5.02,0.00,21.9,21.8,00.0,30.7,23.8,10.2,0000.0,0014.55,0005.37,0004.35
2022-12-14 20:39:00,,0815.9,5.01,0.00,22.0,22.1,00.0,30.8,24.0,10.0,0000.0,0013.95,0005.34,0004.34
2022-12-14 20:40:00,,0815.8,4.98,0.00,22.0,21.7,00.0,30.8,23.9,10.0,0000.0,0013.92,0005.31,0004.34
2022-12-14 20:41:00,,0815.8,5.01,0.00,22.0,21.3,00.0,30.8,23.9,10.1,0000.0,0013.85,0005.31,0004.33
2022-12-14 20:42:00,,0815.8,5.00,0.00,22.0,21.1,00.0,30.8,23.8,10.1,0000.0,0013.69,0005.30,0004.33
2022-12-14 20:43:00,,0815.8,5.00,0.00,22.0,20.8,00.0,30.8,23.8,10.0,0000.0,0013.29,0005.27,0004.31
2022-12-14 20:44:00,,0815.8,5.03,0.00,22.0,20.7,00.0,30.8,23.7,10.0,0000.0,0012.40,0005.27,0004.30
2022-12-14 20:45:00,,0815.8,4.95,0.00,22.0,20.5,00.0,30.8,23.7,09.7,0000.0,0012.29,0005.18,0004.26
2022-12-14 20:46:00,,0815.7,5.02,0.00,21.9,20.4,00.0,30.8,23.7,09.1,0000.0,0011.85,0005.03,0004.18
2022-12-14 20:47:00,,0815.7,4.98,0.00,21.9,20.4,00.0,30.8,23.7,09.4,0000.0,0011.06,0004.90,0004.11
2022-12-14 20:48:00,,0815.7,5.01,0.00,21.9,20.3,00.0,30.8,23.7,09.7,0000.0,0011.03,0004.79,0004.08
2022-12-14 20:49:00,,0815.7,5.02,0.00,21.9,20.2,00.0,30.8,23.6,09.4,0000.0,0010.83,0004.71,0004.04
2022-12-14 20:50:00,,0815.7,4.96,0.00,21.9,20.1,00.0,30.8,23.5,09.4,0000.0,0010.86,0004.69,0003.99
2022-12-14 20:51:00,,0815.6,5.06,0.00,21.9,20.1,00.0,30.8,23.5,09.5,0000.0,0010.85,0004.62,0003.92
2022-12-14 20:52:00,,0815.8,4.95,0.00,21.8,20.0,00.0,30.8,23.5,09.4,0000.0,0010.24,0004.51,0003.86
2022-12-14 20:53:00,,0815.7,5.06,0.00,21.8,20.0,00.0,30.7,23.5,09.2,0000.0,0009.94,0004.37,0003.78
2022-12-14 20:54:00,,0815.7,4.96,0.00,21.8,20.0,00.0,30.7,23.5,09.6,0000.0,0009.83,0004.29,0003.73
2022-12-14 20:55:00,,0815.7,5.04,0.00,21.8,20.0,00.0,30.7,23.5,09.7,0000.0,0009.95,0004.24,0003.69
2022-12-14 20:56:00,,0815.9,4.95,0.00,21.8,20.0,00.0,30.7,23.5,09.7,0000.0,0010.25,0004.19,0003.65
2022-12-14 20:57:00,,0815.7,5.05,0.00,21.8,20.0,00.0,30.7,23.5,09.5,0000.0,0010.55,0004.19,0003.63
2022-12-14 20:58:00,,0815.8,4.95,0.00,21.8,20.0,00.0,30.7,23.5,09.8,0000.0,0010.30,0004.26,0003.63
2022-12-14 20:59:00,,0815.8,5.06,0.00,21.8,20.3,00.0,30.6,23.6,09.8,0000.0,0009.96,0004.23,0003.60
